Home   Weather   Osage City   Past weeks

Flag for USA Past Weather in Osage City, Kansas, USA — Yesterday and Last 2 Weeks

Now
40 °F

Clear.


Feels Like: 35 °F
Forecast: 37 / 51 °F
Wind: 7 mph from Southeast

Location: Forbes Field

Current Time: Jan 18, 2017 at 8:37:03 pm

Latest Report: Jan 18, 2017 at 7:53 pm


Visibility: 10 mi

Pressure: 29.98 "Hg

Humidity: 80%

Dew Point: 34 °F

Location of Osage CityLocation

Past Weather in Osage City — Graph

°F

Osage City Temperature Yesterday

Maximum temperature yesterday: 48 °F (at 3:53 pm)
Minimum temperature yesterday: 27 °F (at 11:53 pm)
Average temperature yesterday: 37 °F

High & Low Weather Summary for the Past Weeks

 TemperatureHumidityPressure
High64 °F (Jan 11, 12:53 pm)97% (Jan 16, 1:29 am)30.76 "Hg (Jan 16, 1:29 am)
Low-2 °F (Jan 6, 6:53 am)33% (Jan 11, 1:21 pm)29.34 "Hg (Jan 10, 5:53 am)
Average28 °F72%30.21 "Hg
* Reported Jan 3 6:53 pm — Jan 18 6:53 pm, Osage City, Weather by CustomWeather, © 2017

Note: Actual official high and low records may vary slightly from our data, if they occured in-between our weather recording intervals... More about our weather records

Advertising

Osage City Weather History for the Previous 24 Hours

Scroll right to see more
 ConditionsComfort  
Time TempWeatherWind HumidityBarometerVisibility
6:53 pm
Wed, Jan 18
42 °FPassing clouds.7 mph76%29.99 "Hg10 mi
5:53 pm45 °FClear.8 mph68%29.99 "Hg10 mi
4:53 pm51 °FSunny.10 mph56%29.98 "Hg10 mi
3:53 pm56 °FSunny.12 mph46%29.98 "Hg10 mi
2:53 pm57 °FSunny.12 mph44%30.00 "Hg10 mi
1:53 pm53 °FSunny.9 mph55%30.03 "Hg10 mi
12:53 pm51 °FSunny.14 mph59%30.08 "Hg10 mi
11:53 am48 °FSunny.9 mph66%30.11 "Hg10 mi
10:53 am43 °FSunny.10 mph76%30.15 "Hg10 mi
9:53 am39 °FSunny.10 mph86%30.16 "Hg10 mi
8:53 am33 °FFog.9 mph92%30.16 "Hg6 mi
7:53 am27 °FIce fog.5 mph92%30.15 "Hg5 mi
6:53 am25 °FClear.No wind92%30.14 "Hg8 mi
5:53 am27 °FIce fog.5 mph92%30.15 "Hg5 mi
4:53 am27 °FIce fog.5 mph89%30.14 "Hg6 mi
3:53 am30 °FIce fog.7 mph89%30.16 "Hg5 mi
3:05 am27 °FIce fog.No wind89%30.14 "Hg4 mi
2:53 am27 °FIce fog.No wind92%30.15 "Hg2 mi
2:44 am27 °FIce fog.3 mph92%30.14 "Hg1 mi
2:35 am27 °FIce fog.No wind96%30.14 "Hg1 mi
2:09 am29 °FIce fog.No wind96%30.14 "Hg2 mi
1:53 am32 °FIce fog.No wind88%30.16 "Hg5 mi
12:53 am30 °FIce fog.7 mph92%30.16 "Hg6 mi
11:53 pm
Tue, Jan 17
27 °FClear.6 mph92%30.17 "Hg9 mi
10:53 pm28 °FClear.3 mph93%30.18 "Hg9 mi
9:53 pm29 °FClear.5 mph89%30.17 "Hg9 mi
8:53 pm31 °FClear.No wind89%30.18 "Hg10 mi
Weather by CustomWeather, © 2017

See weather overviewHow to use our weather pages